TimeCST,TemperatureF,Dew PointF,Humidity,Sea Level PressureIn,VisibilityMPH,Wind Direction,Wind SpeedMPH,Gust SpeedMPH,PrecipitationIn,Events,Conditions,WindDirDegrees,DateUTC
12:54 AM,41.0,30.9,67,29.70,10.0,South,13.8,-,0.00,,Mostly Cloudy,170,2012-02-21 06:54:00
1:54 AM,39.0,32.0,76,29.67,10.0,SSE,6.9,-,N/A,,Scattered Clouds,160,2012-02-21 07:54:00
2:54 AM,37.9,32.0,79,29.65,10.0,SSE,5.8,-,N/A,,Overcast,160,2012-02-21 08:54:00
3:13 AM,39.2,32.0,75,29.64,10.0,South,4.6,-,N/A,,Overcast,170,2012-02-21 09:13:00
3:54 AM,37.9,33.1,83,29.64,10.0,South,8.1,-,0.00,,Mostly Cloudy,190,2012-02-21 09:54:00
4:08 AM,37.4,32.0,81,29.63,10.0,South,9.2,-,N/A,,Scattered Clouds,180,2012-02-21 10:08:00
4:54 AM,37.0,33.1,86,29.67,10.0,SW,9.2,-,N/A,,Overcast,220,2012-02-21 10:54:00
5:01 AM,37.4,33.8,87,29.65,10.0,SW,8.1,-,N/A,,Overcast,220,2012-02-21 11:01:00
5:54 AM,39.9,36.0,86,29.67,10.0,SW,11.5,-,N/A,,Overcast,230,2012-02-21 11:54:00
6:54 AM,41.0,36.0,82,29.71,10.0,WSW,11.5,-,N/A,,Overcast,240,2012-02-21 12:54:00
7:19 AM,42.8,37.4,81,29.71,10.0,WSW,15.0,21.9,N/A,,Overcast,250,2012-02-21 13:19:00
7:54 AM,42.1,37.0,82,29.75,10.0,WSW,15.0,20.7,N/A,,Overcast,250,2012-02-21 13:54:00
8:42 AM,42.8,37.4,81,29.77,8.0,West,16.1,24.2,N/A,,Overcast,270,2012-02-21 14:42:00
8:54 AM,42.1,37.9,85,29.78,7.0,West,16.1,25.3,N/A,,Overcast,260,2012-02-21 14:54:00
9:29 AM,42.8,37.4,81,29.77,10.0,West,15.0,25.3,N/A,,Overcast,270,2012-02-21 15:29:00
9:39 AM,44.6,37.4,76,29.77,10.0,West,13.8,21.9,N/A,,Overcast,270,2012-02-21 15:39:00
9:54 AM,45.0,37.0,74,29.78,10.0,West,17.3,25.3,N/A,,Overcast,270,2012-02-21 15:54:00
10:36 AM,44.6,33.8,66,29.79,10.0,West,21.9,28.8,N/A,,Partly Cloudy,280,2012-02-21 16:36:00
10:54 AM,46.4,33.8,62,29.80,10.0,West,17.3,27.6,N/A,,Partly Cloudy,270,2012-02-21 16:54:00
11:54 AM,48.9,30.9,50,29.81,10.0,West,15.0,-,N/A,,Clear,260,2012-02-21 17:54:00
12:54 PM,50.0,30.9,48,29.80,10.0,West,16.1,27.6,N/A,,Clear,260,2012-02-21 18:54:00
1:54 PM,51.1,26.1,38,29.79,10.0,West,20.7,28.8,N/A,,Clear,260,2012-02-21 19:54:00
2:54 PM,52.0,24.1,34,29.80,10.0,West,18.4,34.5,N/A,,Clear,270,2012-02-21 20:54:00
3:54 PM,52.0,23.0,32,29.80,10.0,WSW,24.2,32.2,N/A,,Mostly Cloudy,250,2012-02-21 21:54:00
4:54 PM,50.0,24.1,36,29.80,10.0,WSW,19.6,31.1,N/A,,Mostly Cloudy,250,2012-02-21 22:54:00
5:54 PM,46.9,25.0,42,29.81,10.0,WSW,13.8,-,N/A,,Partly Cloudy,240,2012-02-21 23:54:00
6:54 PM,46.4,24.8,43,29.81,10.0,WSW,10.4,-,N/A,,Clear,250,2012-02-22 00:54:00
7:54 PM,39.0,25.0,57,29.82,10.0,SW,4.6,-,N/A,,Clear,230,2012-02-22 01:54:00
8:54 PM,39.0,26.1,60,29.82,10.0,SW,6.9,-,N/A,,Clear,220,2012-02-22 02:54:00
9:54 PM,37.9,26.1,62,29.79,10.0,SW,9.2,-,N/A,,Mostly Cloudy,220,2012-02-22 03:54:00
10:54 PM,36.0,26.1,67,29.77,10.0,SSW,8.1,-,N/A,,Clear,210,2012-02-22 04:54:00
11:54 PM,36.0,26.1,67,29.74,10.0,SSW,9.2,-,N/A,,Clear,210,2012-02-22 05:54:00